Hourly Data Report for September 27, 2016

SHEARWATER RCS
NOVA SCOTIA

44°37'47.000" N
63°30'48.000" W
24.00 m
8205092
71264
AAW

Download Data

Hourly Data (September 2016)
Hourly Data Report for September 27, 2016
TIME Temp Definition
°C
Dew Point Definition
°C
Rel Hum Definition
%
Wind Dir Definition
10's deg

Wind Spd Definition
km/h
Visibility Definition
km
Stn Press Definition
kPa
Hmdx Definition


Wind Chill Definition


Weather Definition


00:00 9.5 5.6 76 27 10   101.34     LegendNANA
01:00 9.5 5.9 78 28 12   101.32     LegendNANA
02:00 9.4 6.3 81 27 9   101.32     LegendNANA
03:00 8.9 6.0 82 26 5   101.28     LegendNANA
04:00 8.6 6.2 85 25 6   101.24     LegendNANA
05:00 8.8 6.1 84 25 7   101.22     LegendNANA
06:00 8.3 6.2 86 23 6   101.25     LegendNANA
07:00 9.3 7.2 86 26 5   101.28     LegendNANA
08:00 9.9 7.7 86 30 2   101.32     LegendNANA
09:00 11.2 8.2 82 22 4   101.32     LegendNANA
10:00 14.1 9.7 75 23 6   101.30     LegendNANA
11:00 14.0 10.2 78 24 10   101.31     LegendNANA
12:00 13.0 10.6 85 23 8   101.26     LegendNANA
13:00 13.5 11.5 88 24 8   101.28     LegendNANA
14:00 13.3 11.7 90 20 9   101.23     LegendNANA
15:00 13.2 12.0 93 18 10   101.23     LegendNANA
16:00 13.5 12.5 94 17 13   101.20     LegendNANA
17:00 13.9 13.1 95 15 13   101.19     LegendNANA
18:00 13.9 13.1 95 12 12   101.20     LegendNANA
19:00 13.9 13.1 95 7 13   101.19     LegendNANA
20:00 13.6 12.8 95 5 20   101.18     LegendNANA
21:00 13.5 12.6 95 4 20   101.23     LegendNANA
22:00 11.6 10.5 93 3 22   101.29     LegendNANA
23:00 11.3 10.0 92 3 22   101.35     LegendNANA

Notes on Data Quality.

Legend

  • E = Estimated
  • M = Missing
  • NA = Not Available*
  • [empty] = Indicates an unobserved value
Date modified: